Year,Month,Day,Hour,Minute,Value (Times are PST for windgust in km/hr)
2016,11,24,00,00,29.00
2016,11,24,00,01,25.70
2016,11,24,00,02,25.70
2016,11,24,00,03,25.70
2016,11,24,00,04,29.00
2016,11,24,00,05,24.20
2016,11,24,00,06,25.70
2016,11,24,00,07,19.30
2016,11,24,00,08,19.30
2016,11,24,00,36,35.40
2016,11,24,00,37,32.20
2016,11,24,00,38,24.20
2016,11,24,00,39,12.90
2016,11,24,00,40,29.00
2016,11,24,00,41,24.20
2016,11,24,00,42,16.10
2016,11,24,00,43,25.70
2016,11,24,00,44,20.90
2016,11,24,00,45,22.50
2016,11,24,13,16,3.20
2016,11,24,13,17,1.60
2016,11,24,13,18,3.20
2016,11,24,13,19,3.20
2016,11,24,13,20,6.40
2016,11,24,13,21,6.40
2016,11,24,13,22,9.60
2016,11,24,13,23,4.80
2016,11,24,13,24,4.80
2016,11,24,13,25,6.40
2016,11,24,13,26,3.20
2016,11,24,13,27,4.80
2016,11,24,13,28,4.80
2016,11,24,13,29,8.10
2016,11,24,13,30,6.40
2016,11,24,13,31,6.40
2016,11,24,13,32,1.60
2016,11,24,13,34,1.60
2016,11,24,13,35,3.20
2016,11,24,13,36,1.60
2016,11,24,13,37,1.60
2016,11,24,13,38,4.80
2016,11,24,13,39,4.80
2016,11,24,13,40,3.20
2016,11,24,13,41,3.20
2016,11,24,13,42,1.60
2016,11,24,13,44,4.80
2016,11,24,13,45,3.20
2016,11,24,13,46,1.60
2016,11,24,13,47,1.60
2016,11,24,13,48,3.20
2016,11,24,13,49,3.20
2016,11,24,13,50,3.20
2016,11,24,13,51,1.60
2016,11,24,13,52,3.20
2016,11,24,13,53,3.20
2016,11,24,13,54,1.60
2016,11,24,13,55,4.80
2016,11,24,13,56,3.20
2016,11,24,13,57,1.60
2016,11,24,13,58,3.20
2016,11,24,13,59,9.60
2016,11,24,14,00,11.30
2016,11,24,14,01,6.40
2016,11,24,14,02,4.80
2016,11,24,14,03,9.60
2016,11,24,14,04,3.20
2016,11,24,14,05,3.20
2016,11,24,14,06,3.20
2016,11,24,14,07,4.80
2016,11,24,14,08,8.10
2016,11,24,14,09,3.20
2016,11,24,14,10,3.20
2016,11,24,14,11,4.80
2016,11,24,14,12,6.40
2016,11,24,14,13,3.20
2016,11,24,14,14,4.80
2016,11,24,14,15,8.10
2016,11,24,14,16,4.80
2016,11,24,14,17,4.80
2016,11,24,14,18,3.20
2016,11,24,14,19,6.40
2016,11,24,14,20,6.40
2016,11,24,14,21,6.40
2016,11,24,14,22,3.20
2016,11,24,14,23,1.60
2016,11,24,14,24,9.60
2016,11,24,14,25,11.30
2016,11,24,14,26,3.20
2016,11,24,14,27,3.20
2016,11,24,14,28,4.80
2016,11,24,14,29,3.20
2016,11,24,14,30,3.20
2016,11,24,14,31,3.20
2016,11,24,14,32,1.60
2016,11,24,14,33,3.20
2016,11,24,14,34,8.10
2016,11,24,14,35,9.60
2016,11,24,14,36,9.60
2016,11,24,14,37,6.40
2016,11,24,14,38,4.80
2016,11,24,14,39,1.60
2016,11,24,14,40,6.40
2016,11,24,14,41,3.20
2016,11,24,14,42,6.40
2016,11,24,14,43,6.40
2016,11,24,14,44,9.60
2016,11,24,14,45,4.80
2016,11,24,14,46,12.90
2016,11,24,14,47,6.40
2016,11,24,14,48,6.40
2016,11,24,14,49,6.40
2016,11,24,14,50,6.40
2016,11,24,14,51,8.10
2016,11,24,14,52,3.20
2016,11,24,14,53,4.80
2016,11,24,14,54,4.80
2016,11,24,14,55,6.40
2016,11,24,14,56,12.90
2016,11,24,14,57,14.50
2016,11,24,14,58,17.70
2016,11,24,14,59,8.10
2016,11,24,15,00,3.20
2016,11,24,15,01,14.50
2016,11,24,15,02,17.70
2016,11,24,15,03,11.30
2016,11,24,15,04,6.40
2016,11,24,15,05,4.80
2016,11,24,15,06,4.80
2016,11,24,15,07,3.20
2016,11,24,15,08,3.20
2016,11,24,15,09,16.10
2016,11,24,15,10,14.50
2016,11,24,15,11,6.40
2016,11,24,15,12,12.90
2016,11,24,15,13,3.20
2016,11,24,15,14,4.80
2016,11,24,15,15,4.80
2016,11,24,15,16,3.20
2016,11,24,15,17,3.20
2016,11,24,15,18,6.40
2016,11,24,15,19,4.80
2016,11,24,15,20,8.10
2016,11,24,15,21,16.10
2016,11,24,15,22,6.40
2016,11,24,15,23,6.40
2016,11,24,15,24,6.40
2016,11,24,15,25,6.40
2016,11,24,15,26,4.80
2016,11,24,15,27,11.30
2016,11,24,15,28,8.10
2016,11,24,15,29,17.70
2016,11,24,15,30,6.40
2016,11,24,15,31,16.10
2016,11,24,15,32,9.60
2016,11,24,15,33,4.80
2016,11,24,15,34,17.70
2016,11,24,15,35,11.30
2016,11,24,15,36,4.80
2016,11,24,15,37,14.50
2016,11,24,15,38,3.20
2016,11,24,15,39,4.80
2016,11,24,15,40,3.20
2016,11,24,15,41,11.30
2016,11,24,15,42,16.10
2016,11,24,15,43,6.40
2016,11,24,15,44,6.40
2016,11,24,15,45,14.50
2016,11,24,15,46,19.30
2016,11,24,15,47,12.90
2016,11,24,15,48,9.60
2016,11,24,15,49,3.20
2016,11,24,15,50,12.90
2016,11,24,15,51,11.30
2016,11,24,15,52,3.20
2016,11,24,15,53,12.90
2016,11,24,15,54,9.60
2016,11,24,15,55,4.80
2016,11,24,15,56,8.10
2016,11,24,15,57,12.90
2016,11,24,15,58,12.90
2016,11,24,15,59,3.20
2016,11,24,16,00,11.30
2016,11,24,16,01,14.50
2016,11,24,16,02,4.80
2016,11,24,16,03,1.60
2016,11,24,16,04,3.20
2016,11,24,16,05,11.30
2016,11,24,16,06,9.60
2016,11,24,16,07,11.30
2016,11,24,16,08,4.80
2016,11,24,16,09,3.20
2016,11,24,16,10,12.90
2016,11,24,16,11,9.60
2016,11,24,16,12,3.20
2016,11,24,16,13,9.60
2016,11,24,16,14,9.60
2016,11,24,16,15,3.20
2016,11,24,16,16,6.40
2016,11,24,16,17,4.80
2016,11,24,16,18,9.60
2016,11,24,16,19,9.60
2016,11,24,16,20,12.90
2016,11,24,16,21,6.40
2016,11,24,16,22,3.20
2016,11,24,16,23,4.80
2016,11,24,16,24,6.40
2016,11,24,16,25,4.80
2016,11,24,16,26,8.10
2016,11,24,16,27,9.60
2016,11,24,16,28,4.80
2016,11,24,16,29,3.20
2016,11,24,16,30,3.20
2016,11,24,16,31,4.80
2016,11,24,16,32,11.30
2016,11,24,16,33,3.20
2016,11,24,16,34,4.80
2016,11,24,16,35,4.80
2016,11,24,16,36,4.80
2016,11,24,16,37,3.20
2016,11,24,16,38,3.20
2016,11,24,16,39,3.20
2016,11,24,16,40,1.60
2016,11,24,16,41,1.60
2016,11,24,16,42,1.60
2016,11,24,16,43,4.80
2016,11,24,16,44,4.80
2016,11,24,16,45,4.80
2016,11,24,16,46,4.80
2016,11,24,16,47,1.60
2016,11,24,16,48,1.60
2016,11,24,16,49,3.20
2016,11,24,16,50,3.20
2016,11,24,16,51,1.60
2016,11,24,16,52,4.80
2016,11,24,16,53,3.20
2016,11,24,16,54,6.40
2016,11,24,16,55,6.40
2016,11,24,16,56,3.20
2016,11,24,16,57,4.80
2016,11,24,16,58,3.20
2016,11,24,16,59,1.60
2016,11,24,17,00,1.60
2016,11,24,17,01,1.60
2016,11,24,17,02,3.20
2016,11,24,17,03,3.20
2016,11,24,17,04,1.60
2016,11,24,17,05,1.60
2016,11,24,17,06,3.20
2016,11,24,17,07,3.20
2016,11,24,17,08,4.80
2016,11,24,17,09,3.20
2016,11,24,17,10,3.20
2016,11,24,17,11,3.20
2016,11,24,17,12,1.60
2016,11,24,17,13,3.20
2016,11,24,17,14,3.20
2016,11,24,17,15,1.60
2016,11,24,17,16,6.40
2016,11,24,17,17,6.40
2016,11,24,17,18,1.60
2016,11,24,17,19,1.60
2016,11,24,17,20,3.20
2016,11,24,17,21,1.60
2016,11,24,17,22,3.20
2016,11,24,17,23,3.20
2016,11,24,17,24,1.60
2016,11,24,17,25,3.20
2016,11,24,17,26,3.20
2016,11,24,17,27,1.60
2016,11,24,17,36,3.20
2016,11,24,17,37,3.20
2016,11,24,17,40,3.20
2016,11,24,17,41,1.60
2016,11,24,17,46,1.60
2016,11,24,17,47,1.60
2016,11,24,17,49,4.80
2016,11,24,17,50,1.60
2016,11,24,17,53,1.60
2016,11,24,17,55,1.60
2016,11,24,17,56,3.20
2016,11,24,17,57,1.60
2016,11,24,17,59,1.60
2016,11,24,18,31,3.20
2016,11,24,18,32,1.60
2016,11,24,18,33,1.60
2016,11,24,19,44,1.60
2016,11,24,19,45,1.60
2016,11,24,19,50,1.60
2016,11,24,19,51,3.20
2016,11,24,19,55,1.60
2016,11,24,19,57,1.60
2016,11,24,19,58,1.60
2016,11,24,19,59,3.20
2016,11,24,20,00,1.60
2016,11,24,20,06,3.20
2016,11,24,20,07,3.20
2016,11,24,20,11,3.20
2016,11,24,20,12,1.60
2016,11,24,20,18,1.60
2016,11,24,20,19,1.60
2016,11,24,20,38,3.20
2016,11,24,20,39,6.40
2016,11,24,20,40,8.10
2016,11,24,20,41,8.10
2016,11,24,20,42,14.50
2016,11,24,20,43,12.90
2016,11,24,20,44,3.20
2016,11,24,20,45,1.60
2016,11,24,20,46,11.30
2016,11,24,20,47,9.60
2016,11,24,20,48,12.90
2016,11,24,20,49,6.40
2016,11,24,20,50,8.10
2016,11,24,20,51,9.60
2016,11,24,20,52,3.20
2016,11,24,20,53,3.20
2016,11,24,20,54,9.60
2016,11,24,20,55,4.80
2016,11,24,20,56,8.10
2016,11,24,20,57,3.20
2016,11,24,20,58,6.40
2016,11,24,20,59,4.80
2016,11,24,21,00,6.40
2016,11,24,21,01,3.20
2016,11,24,21,02,1.60
2016,11,24,21,03,1.60
2016,11,24,21,04,3.20
2016,11,24,21,05,3.20
2016,11,24,21,06,1.60
2016,11,24,21,07,4.80
2016,11,24,21,08,1.60
2016,11,24,21,09,6.40
2016,11,24,21,10,6.40
2016,11,24,21,11,6.40
2016,11,24,21,12,8.10
2016,11,24,21,13,8.10
2016,11,24,21,14,3.20
2016,11,24,21,15,4.80
2016,11,24,21,16,6.40
2016,11,24,21,17,3.20
2016,11,24,21,18,12.90
2016,11,24,21,19,12.90
2016,11,24,21,20,12.90
2016,11,24,21,21,16.10
2016,11,24,21,22,12.90
2016,11,24,21,23,9.60
2016,11,24,21,24,6.40
2016,11,24,21,25,1.60
2016,11,24,21,26,6.40
2016,11,24,21,27,6.40
2016,11,24,21,28,14.50
2016,11,24,21,29,12.90
2016,11,24,21,30,14.50
2016,11,24,21,31,9.60
2016,11,24,21,32,11.30
2016,11,24,21,33,1.60
2016,11,24,21,34,6.40
2016,11,24,21,35,6.40
2016,11,24,21,36,8.10
2016,11,24,21,37,11.30
2016,11,24,21,38,4.80
2016,11,24,21,39,6.40
2016,11,24,21,40,11.30
2016,11,24,21,41,14.50
2016,11,24,21,42,8.10
2016,11,24,21,43,6.40
2016,11,24,21,44,3.20
2016,11,24,21,45,3.20
2016,11,24,21,46,4.80
2016,11,24,21,47,3.20
2016,11,24,21,48,3.20
2016,11,24,21,49,12.90
2016,11,24,21,50,4.80
2016,11,24,21,51,8.10
2016,11,24,21,52,4.80
2016,11,24,21,53,12.90
2016,11,24,21,54,8.10
2016,11,24,21,55,6.40
2016,11,24,21,56,3.20
2016,11,24,21,57,3.20
2016,11,24,21,58,14.50
2016,11,24,21,59,14.50
2016,11,24,22,00,8.10
2016,11,24,22,01,6.40
2016,11,24,22,02,3.20
2016,11,24,22,03,6.40
2016,11,24,22,04,8.10
2016,11,24,22,05,4.80
2016,11,24,22,06,4.80
2016,11,24,22,07,6.40
2016,11,24,22,08,11.30
2016,11,24,22,09,12.90
2016,11,24,22,10,6.40
2016,11,24,22,11,11.30
2016,11,24,22,12,4.80
2016,11,24,22,13,8.10
2016,11,24,22,14,11.30
2016,11,24,22,15,8.10
2016,11,24,22,16,4.80
2016,11,24,22,17,4.80
2016,11,24,22,18,6.40
2016,11,24,22,19,4.80
2016,11,24,22,20,9.60
2016,11,24,22,21,6.40
2016,11,24,22,22,3.20
2016,11,24,22,23,6.40
2016,11,24,22,24,3.20
2016,11,24,22,25,1.60
2016,11,24,22,26,3.20
2016,11,24,22,27,4.80
2016,11,24,22,28,9.60
2016,11,24,22,29,1.60
2016,11,24,22,30,1.60
2016,11,24,22,32,4.80
2016,11,24,22,33,3.20
2016,11,24,22,34,1.60
2016,11,24,22,35,3.20
2016,11,24,22,36,1.60
2016,11,24,22,38,3.20
2016,11,24,22,39,1.60
2016,11,24,22,43,1.60
2016,11,24,22,45,1.60
2016,11,24,22,46,1.60
2016,11,24,22,47,1.60
2016,11,24,23,01,1.60
2016,11,24,23,02,3.20
2016,11,24,23,05,3.20
2016,11,24,23,11,4.80
2016,11,24,23,12,4.80
2016,11,24,23,13,1.60
2016,11,24,23,14,4.80
2016,11,24,23,15,4.80
2016,11,24,23,16,4.80
2016,11,24,23,17,3.20
2016,11,24,23,18,3.20
2016,11,24,23,19,3.20
2016,11,24,23,20,1.60
2016,11,24,23,21,4.80
2016,11,24,23,22,6.40
2016,11,24,23,23,3.20
2016,11,24,23,26,4.80
2016,11,24,23,27,4.80
2016,11,24,23,28,3.20
2016,11,24,23,29,3.20
2016,11,24,23,30,3.20
2016,11,24,23,31,3.20
2016,11,24,23,32,1.60
2016,11,24,23,33,1.60
2016,11,24,23,35,3.20
2016,11,24,23,36,1.60
2016,11,24,23,38,3.20
2016,11,24,23,39,3.20
2016,11,24,23,40,4.80
2016,11,24,23,44,4.80
2016,11,24,23,45,4.80
2016,11,24,23,46,3.20
2016,11,24,23,51,4.80
2016,11,24,23,52,1.60
2016,11,24,23,55,1.60
2016,11,24,23,56,3.20
2016,11,24,23,58,4.80
2016,11,24,23,59,3.20
